LANDSAT 4 1 13367U 82072A 08186.71951792 .00000380 00000-0 34065-4 0 7219 2 13367 98.2050 76.2255 0018734 51.1054 309.1835 15.02048557392350 TDRS 1 1 13969U 83026B 08186.14955221 -.00000312 00000-0 10000-3 0 6661 2 13969 13.0684 11.8830 0022569 223.4115 52.1580 1.00266569 65507 LANDSAT 5 1 14780U 84021A 08186.79321124 .00000038 00000-0 18484-4 0 5083 2 14780 98.1485 253.0294 0007825 97.1557 263.0530 14.57141412294798 ERBS 1 15354U 84108B 08186.90301816 .00000417 00000-0 37150-4 0 8845 2 15354 56.9851 148.7836 0021377 139.3291 220.9359 15.15538446299405 TDRS 3 1 19548U 88091B 08186.66097925 -.00000205 00000-0 10000-3 0 869 2 19548 11.1629 43.3191 0016558 311.0610 251.2881 1.00275264 59656 TDRS 4 1 19883U 89021B 08185.33441029 -.00000294 00000-0 10000-3 0 3788 2 19883 9.7252 55.7343 0003654 71.0614 229.1272 1.00262776243218 HST 1 20580U 90037B 08186.50552881 .00000285 00000-0 91958-5 0 1760 2 20580 28.4692 210.2688 0003790 204.4307 155.6102 15.00390956797588 TDRS 5 1 21639U 91054B 08186.57276416 .00000080 00000-0 10000-3 0 2503 2 21639 9.0505 59.6855 0001510 34.1704 224.1812 1.00274886 61975 UARS 1 21701U 91063B 08186.93241250 .00000868 00000-0 19828-4 0 4077 2 21701 56.9749 83.8730 0080497 212.0021 147.6137 15.52156865925254 TOPEX/POSEIDON 1 22076U 92052A 08186.96905836 -.00000038 00000-0 10000-3 0 2735 2 22076 66.0325 71.9322 0007747 268.9685 91.0442 12.80942664743774 TDRS 6 1 22314U 93003B 08186.51941625 .00000069 00000-0 10000-3 0 3132 2 22314 8.3839 62.8779 0003102 14.5993 218.6629 1.00265597 56696 TDRS 7 1 23613U 95035B 08184.47749509 .00000111 00000-0 10000-3 0 3433 2 23613 10.2741 51.9904 0003770 5.3386 244.6085 1.00270703 47484 XTE 1 23757U 95074A 08186.79613163 .00000847 00000-0 14311-4 0 6516 2 23757 22.9835 349.9208 0007413 322.4629 37.5357 15.26808983692606 TRMM 1 25063U 97074A 08186.88062390 .00001868 00000-0 26585-4 0 8152 2 25063 34.9660 115.6694 0001235 271.4140 88.6450 15.56127735605967 ETS 7 1 25064U 97074B 08186.97338208 .00000506 00000-0 21313-4 0 5886 2 25064 34.9585 63.2976 0003521 20.2480 339.8374 15.24815821587973 ISS (ZARYA) 1 25544U 98067A 08186.87400661 .00006499 00000-0 47055-4 0 7941 2 25544 51.6413 285.4198 0008946 333.6627 129.6621 15.74930425551318 LANDSAT 7 1 25682U 99020A 08186.89784717 .00000002 00000-0 10366-4 0 5951 2 25682 98.1937 253.7108 0001346 111.7388 248.3943 14.57123848490505 FUSE 1 1 25791U 99035A 08186.33881336 .00000189 00000-0 26866-5 0 2228 2 25791 24.9857 300.3194 0011033 218.3857 141.5816 14.41771736476142 TERRA 1 25994U 99068A 08186.91750047 .00000013 00000-0 12941-4 0 7350 2 25994 98.2107 260.8302 0001524 77.4446 282.6921 14.57113937454580 TDRS 8 1 26388U 00034A 08186.02423109 -.00000229 00000-0 10000-3 0 7567 2 26388 0.7494 149.3501 0004193 303.4273 287.5779 1.00270597 29440 EO 1 1 26619U 00075A 08186.85935552 -.00000839 00000-0 -15883-3 0 1083 2 26619 98.1490 253.1968 0008171 319.9443 40.1141 14.61763344405527 TIMED 1 26998U 01055B 08186.76455258 .00000133 00000-0 20237-4 0 637 2 26998 74.0750 317.0695 0001172 184.0263 176.0889 14.84008545355983 TDRS 9 1 27389U 02011A 08180.32898225 -.00000261 00000-0 10000-3 0 2491 2 27389 3.1589 246.4978 0004556 207.1791 239.3911 1.00277649 24633 AQUA 1 27424U 02022A 08186.73115608 .00000405 00000-0 10000-3 0 8597 2 27424 98.2308 127.0968 0001494 74.6253 285.5145 14.57105405328161 TDRS 10 1 27566U 02055A 08181.00034477 -.00000249 00000-0 00000-0 0 9616 2 27566 1.9615 278.7912 0002304 160.0024 158.0194 1.00272508 20463 SORCE 1 27651U 03004A 08186.78030828 -.00000029 00000-0 12327-4 0 6489 2 27651 39.9979 69.8148 0024302 92.1917 268.1655 14.82082394294734 GALEX 1 27783U 03017A 08186.50676361 .00000205 00000-0 20528-4 0 4415 2 27783 28.9981 214.8170 0003962 273.1202 86.8917 14.59688518276937 GP-B 1 28230U 04014A 08186.70344008 .00000702 00000-0 10000-3 0 2652 2 28230 89.9524 159.9821 0002118 66.3317 293.8055 14.75926763226526 AURA 1 28376U 04026A 08186.87399012 -.00000007 00000-0 85674-5 0 2503 2 28376 98.2303 129.4022 0001622 77.6273 282.5114 14.57086247211232 SWIFT 1 28485U 04047A 08186.73806456 .00000521 00000-0 11123-4 0 467 2 28485 20.5558 67.3374 0014065 61.8405 298.3472 14.92415971197694 THEMIS A 1 30580U 07004A 08184.40585216 -.00000193 00000-0 00000+0 0 2771 2 30580 10.2340 286.5856 7585616 46.3468 355.0927 1.12607532 4616 THEMIS B 1 30581U 07004B 08187.91666667 -.00001710 00000-0 00000-0 0 1823 2 30581 12.1812 127.3279 9042679 189.1252 353.9625 0.25563135 5187 THEMIS C 1 30582U 07004C 08185.91666667 -.00000800 00000-0 00000-0 0 2721 2 30582 1.5095 283.8947 8634491 37.4434 351.2889 0.51188382 3174 THEMIS D 1 30797U 07004D 08187.37500000 -.00000253 00000-0 00000+0 0 3495 2 30797 4.9852 284.5379 7547165 50.5397 338.4281 1.00274505 4263 THEMIS E 1 30798U 07004E 08186.50000000 -.00000283 00000-0 00000+0 0 3577 2 30798 5.5239 283.7268 7548102 51.3567 358.2229 1.00277193 4402 C/NOFS 1 32765U 08017A 08186.88156144 .00001971 00000-0 54976-4 0 690 2 32765 13.0069 20.1589 0317871 60.0770 303.0677 14.80322145 11756